| time (UTC) | temp C | wind direction | speed KPH | gust KPH | rain 1hr cm | rain 24hr cm | rain mn cm | humidity % | barometer mb |
| 20260510120040 | -17 | 0.0 | 0.0 | 0.00 | 0.00 | 0.00 | 1013.3 | ||
| 20260510114539 | -17 | 0.0 | 0.0 | 0.00 | 0.00 | 0.00 | 1013.3 | ||
| 20260510113032 | -17 | 0.0 | 0.0 | 0.00 | 0.00 | 0.00 | 1012.9 | ||
| 20260510111526 | -17 | 0.0 | 0.0 | 0.00 | 0.00 | 0.00 | 1012.8 | ||
| 20260510110022 | -17 | 0.0 | 0.0 | 0.00 | 0.00 | 0.00 | 1012.7 | ||
| 20260510104518 | -17 | 0.0 | 0.0 | 0.00 | 0.00 | 0.00 | 1012.5 | ||
| 20260510103014 | -17 | 0.0 | 0.0 | 0.00 | 0.00 | 0.00 | 1012.3 | ||
| 20260510101511 | -17 | 0.0 | 0.0 | 0.00 | 0.00 | 0.00 | 1012.1 | ||
| 20260510100004 | -17 | 0.0 | 0.0 | 0.00 | 0.00 | 0.00 | 1011.9 | ||
| 20260510094600 | -17 | 0.0 | 0.0 | 0.00 | 0.00 | 0.00 | 1011.9 | ||
| 20260510093100 | 8 | 259 | 0.0 | 0.0 | 0.00 | 0.00 | 0.00 | 51 | 1011.8 |
| 20260510091556 | 9 | 264 | 0.0 | 0.0 | 0.00 | 0.00 | 0.00 | 50 | 1011.7 |
| 20260510090052 | 10 | 264 | 0.0 | 0.0 | 0.00 | 0.00 | 0.00 | 49 | 1011.5 |
| 20260510084551 | 10 | 264 | 0.0 | 0.0 | 0.00 | 0.00 | 0.00 | 50 | 1011.5 |
| 20260510083054 | 10 | 264 | 0.0 | 0.0 | 0.00 | 0.00 | 0.00 | 50 | 1011.4 |
| 20260510081548 | 10 | 264 | 0.0 | 0.0 | 0.00 | 0.00 | 0.00 | 52 | 1011.4 |
| 20260510080043 | 10 | 264 | 0.0 | 3.2 | 0.00 | 0.00 | 0.00 | 51 | 1011.3 |
| 20260510074541 | 11 | 264 | 0.0 | 0.0 | 0.00 | 0.00 | 0.00 | 49 | 1011.2 |
| 20260510073039 | 11 | 264 | 0.0 | 1.6 | 0.00 | 0.00 | 0.00 | 50 | 1011.1 |
| 20260510071548 | 11 | 264 | 0.0 | 0.0 | 0.00 | 0.00 | 0.00 | 50 | 1010.8 |
| 20260510070034 | 10 | 264 | 0.0 | 0.0 | 0.00 | 0.00 | 0.00 | 56 | 1010.8 |
| 20260510064532 | 11 | 264 | 0.0 | 0.0 | 0.00 | 0.00 | 0.00 | 57 | 1010.7 |
| 20260510063030 | 11 | 264 | 0.0 | 0.0 | 0.00 | 0.00 | 0.00 | 57 | 1010.8 |
| 20260510061539 | 11 | 264 | 0.0 | 0.0 | 0.00 | 0.00 | 0.00 | 63 | 1010.8 |
| 20260510060025 | 11 | 264 | 0.0 | 0.0 | 0.00 | 0.00 | 0.00 | 62 | 1010.6 |
| 20260510054523 | 11 | 264 | 0.0 | 0.0 | 0.00 | 0.00 | 0.00 | 63 | 1010.5 |
| 20260510053021 | 11 | 264 | 0.0 | 0.0 | 0.00 | 0.00 | 0.00 | 65 | 1010.7 |
| 20260510051518 | 11 | 264 | 0.0 | 0.0 | 0.00 | 0.00 | 0.00 | 68 | 1010.6 |
| 20260510050015 | 12 | 264 | 0.0 | 0.0 | 0.00 | 0.00 | 0.00 | 70 | 1010.7 |
| 20260510044512 | 12 | 264 | 0.0 | 0.0 | 0.00 | 0.00 | 0.00 | 70 | 1010.6 |
| 20260510043014 | 13 | 264 | 0.0 | 0.0 | 0.00 | 0.00 | 0.00 | 74 | 1010.6 |
| 20260510041504 | 13 | 264 | 0.0 | 1.6 | 0.00 | 0.00 | 0.00 | 73 | 1010.5 |
| 20260510040001 | 14 | 264 | 0.0 | 0.0 | 0.00 | 0.00 | 0.00 | 73 | 1010.6 |
| 20260510034503 | 15 | 264 | 0.0 | 1.6 | 0.00 | 0.00 | 0.00 | 74 | 1010.5 |
| 20260510033124 | 15 | 264 | 0.0 | 1.6 | 0.00 | 0.00 | 0.00 | 73 | 1010.3 |
| 20260510031601 | 14 | 264 | 0.0 | 1.6 | 0.00 | 0.00 | 0.00 | 72 | 1010.1 |
| 20260510030059 | 14 | 264 | 0.0 | 0.0 | 0.00 | 0.00 | 0.00 | 74 | 1010.0 |
| 20260510024602 | 14 | 264 | 0.0 | 0.0 | 0.00 | 0.00 | 0.00 | 75 | 1009.9 |
| 20260510023058 | 14 | 264 | 0.0 | 0.0 | 0.00 | 0.00 | 0.00 | 75 | 1009.7 |
| 20260510021557 | 15 | 264 | 0.0 | 0.0 | 0.00 | 0.00 | 0.00 | 75 | 1009.6 |
| 20260510020057 | 15 | 264 | 0.0 | 0.0 | 0.00 | 0.00 | 0.00 | 75 | 1009.4 |
| 20260510014557 | 15 | 264 | 0.0 | 0.0 | 0.00 | 0.00 | 0.00 | 75 | 1009.2 |
| 20260510013057 | 15 | 264 | 0.0 | 0.0 | 0.00 | 0.00 | 0.00 | 75 | 1009.0 |
| 20260510011558 | 16 | 264 | 0.0 | 0.0 | 0.00 | 0.00 | 0.00 | 74 | 1008.8 |
| 20260510010055 | 16 | 264 | 0.0 | 0.0 | 0.00 | 0.00 | 0.00 | 71 | 1008.6 |
| 20260510004556 | 17 | 264 | 0.0 | 0.0 | 0.00 | 0.00 | 0.00 | 69 | 1008.4 |
| 20260510003110 | 18 | 264 | 0.0 | 0.0 | 0.00 | 0.00 | 0.00 | 66 | 1008.2 |
| 20260510001553 | 19 | 264 | 0.0 | 0.0 | 0.00 | 0.00 | 0.00 | 62 | 1008.1 |
| 20260510000057 | 20 | 264 | 0.0 | 0.0 | 0.00 | 0.00 | 0.00 | 58 | 1007.9 |
| 20260509234603 | 21 | 264 | 0.0 | 4.8 | 0.00 | 0.00 | 0.00 | 56 | 1007.9 |
| 20260509233051 | 22 | 264 | 0.0 | 1.6 | 0.00 | 0.00 | 0.00 | 53 | 1007.8 |
| 20260509231554 | 23 | 264 | 0.0 | 4.8 | 0.00 | 0.00 | 0.00 | 50 | 1007.8 |
| 20260509230100 | 24 | 264 | 0.0 | 9.7 | 0.00 | 0.00 | 0.00 | 47 | 1007.9 |
| 20260509224549 | 24 | 264 | 1.6 | 11.3 | 0.00 | 0.00 | 0.00 | 47 | 1007.8 |
| 20260509223049 | 23 | 264 | 0.0 | 4.8 | 0.00 | 0.00 | 0.00 | 50 | 1007.7 |
| 20260509221548 | 24 | 264 | 0.0 | 4.8 | 0.00 | 0.00 | 0.00 | 48 | 1007.7 |
| 20260509220047 | 25 | 264 | 0.0 | 11.3 | 0.00 | 0.00 | 0.00 | 45 | 1007.8 |
| 20260509214549 | 25 | 264 | 0.0 | 8.0 | 0.00 | 0.00 | 0.00 | 46 | 1007.8 |
| 20260509213046 | 25 | 264 | 1.6 | 11.3 | 0.00 | 0.00 | 0.00 | 47 | 1007.7 |
| 20260509211545 | 26 | 264 | 1.6 | 9.7 | 0.00 | 0.00 | 0.00 | 45 | 1007.7 |
| 20260509210050 | 26 | 264 | 3.2 | 11.3 | 0.00 | 0.00 | 0.00 | 43 | 1007.6 |
| 20260509204543 | 25 | 264 | 1.6 | 14.5 | 0.00 | 0.00 | 0.00 | 46 | 1007.5 |
| 20260509203041 | 26 | 264 | 1.6 | 14.5 | 0.00 | 0.00 | 0.00 | 43 | 1007.4 |
| 20260509201539 | 26 | 265 | 3.2 | 11.3 | 0.00 | 0.00 | 0.00 | 45 | 1007.5 |
| 20260509200040 | 25 | 265 | 6.4 | 16.1 | 0.00 | 0.00 | 0.00 | 46 | 1007.6 |
| 20260509194537 | 26 | 264 | 1.6 | 9.7 | 0.00 | 0.00 | 0.00 | 45 | 1007.9 |
| 20260509193034 | 26 | 264 | 4.8 | 9.7 | 0.00 | 0.00 | 0.00 | 45 | 1008.1 |
| 20260509191531 | 26 | 264 | 3.2 | 12.9 | 0.00 | 0.00 | 0.00 | 47 | 1008.2 |
| 20260509190027 | 25 | 264 | 3.2 | 11.3 | 0.00 | 0.00 | 0.00 | 49 | 1008.6 |
| 20260509184522 | 23 | 264 | 1.6 | 8.0 | 0.00 | 0.00 | 0.00 | 55 | 1008.9 |
| 20260509183026 | 23 | 264 | 1.6 | 11.3 | 0.00 | 0.00 | 0.00 | 55 | 1009.0 |
| 20260509181526 | 23 | 264 | 1.6 | 11.3 | 0.00 | 0.00 | 0.00 | 49 | 1009.2 |
| 20260509180015 | 24 | 265 | 0.0 | 6.4 | 0.00 | 0.00 | 0.00 | 53 | 1009.2 |
| 20260509174513 | 22 | 265 | 6.4 | 11.3 | 0.00 | 0.00 | 0.00 | 56 | 1009.6 |
| 20260509173013 | 23 | 265 | 1.6 | 16.1 | 0.00 | 0.00 | 0.00 | 54 | 1009.7 |
| 20260509171508 | 22 | 264 | 3.2 | 9.7 | 0.00 | 0.00 | 0.00 | 57 | 1009.9 |
| 20260509170008 | 22 | 264 | 1.6 | 11.3 | 0.00 | 0.00 | 0.00 | 61 | 1009.9 |
| 20260509164510 | 22 | 264 | 3.2 | 9.7 | 0.00 | 0.00 | 0.00 | 58 | 1009.9 |
| 20260509163002 | 22 | 265 | 4.8 | 9.7 | 0.00 | 0.00 | 0.00 | 58 | 1010.1 |
| 20260509161559 | 21 | 265 | 4.8 | 11.3 | 0.00 | 0.00 | 0.00 | 60 | 1010.2 |
| 20260509160100 | 21 | 264 | 4.8 | 14.5 | 0.00 | 0.00 | 0.00 | 60 | 1010.3 |
| 20260509154601 | 21 | 264 | 3.2 | 16.1 | 0.00 | 0.00 | 0.00 | 60 | 1010.4 |
| 20260509153057 | 21 | 264 | 3.2 | 8.0 | 0.00 | 0.00 | 0.00 | 62 | 1010.5 |
| 20260509151551 | 20 | 264 | 6.4 | 12.9 | 0.00 | 0.00 | 0.00 | 60 | 1010.7 |
| 20260509150048 | 20 | 264 | 3.2 | 14.5 | 0.00 | 0.00 | 0.00 | 62 | 1010.8 |
| 20260509144545 | 19 | 264 | 4.8 | 12.9 | 0.00 | 0.00 | 0.00 | 62 | 1010.8 |
| 20260509143042 | 18 | 264 | 1.6 | 12.9 | 0.00 | 0.00 | 0.00 | 64 | 1011.1 |
| 20260509141537 | 18 | 264 | 1.6 | 8.0 | 0.00 | 0.00 | 0.00 | 65 | 1011.5 |
| 20260509140034 | 18 | 264 | 3.2 | 11.3 | 0.00 | 0.00 | 0.00 | 65 | 1011.5 |
| 20260509134532 | 17 | 264 | 0.0 | 8.0 | 0.00 | 0.00 | 0.00 | 66 | 1011.7 |
| 20260509133032 | 17 | 264 | 1.6 | 6.4 | 0.00 | 0.00 | 0.00 | 65 | 1011.8 |
| 20260509131526 | 16 | 264 | 1.6 | 6.4 | 0.00 | 0.00 | 0.00 | 67 | 1011.9 |
| 20260509130023 | 16 | 264 | 1.6 | 4.8 | 0.00 | 0.00 | 0.00 | 69 | 1011.9 |
| 20260509124520 | -17 | 0.0 | 0.0 | 0.00 | 0.00 | 0.00 | 1011.8 | ||
| 20260509123016 | -17 | 0.0 | 0.0 | 0.00 | 0.00 | 0.00 | 1011.9 | ||
| 20260509121514 | -17 | 0.0 | 0.0 | 0.00 | 0.00 | 0.00 | 1011.9 |